Weather History for Chester, CT

Change the Weather History Date:

Friday, November 30, 2012

  Actual Average (KHVN) Record (KHVN)
Temperature  
Mean Temperature 36 °F -  
Max Temperature 39 °F 45 °F 62 °F (2001)
Min Temperature 32 °F 32 °F 5 °F (1989)
Degree Days  
Heating Degree Days 30    
Moisture  
Dew Point 25 °F    
Average Humidity 66    
Maximum Humidity 87    
Minimum Humidity 56    
Precipitation  
Precipitation 0.00 in - - ()
Sea Level Pressure  
Sea Level Pressure 30.40 in    
Wind  
Wind Speed 6 mph (NE)    
Max Wind Speed 10 mph    
Max Gust Speed -    
Visibility 10 miles    
Events      
Averages and records for this station are not official NWS values.
T = Trace of Precipitation, MM = Missing Value Source: NWS Daily Summary

Daily Weather History Graph

Daily Weather History Graph

Search for Another Location

Airport:

Trip Planner

Search our weather history database for the weather conditions in past years. The results will help you decide how hot, cold, wet, or windy it might be!

Date:

Astronomy

Nov. 30, 2012 Rise Set
Actual Time 6:56 AM EST 4:21 PM EST
Civil Twilight 6:25 AM EST 4:52 PM EST
Nautical Twilight 5:50 AM EST 5:26 PM EST
Astronomical Twilight 5:17 AM EST 5:59 PM EST
Moon 6:13 PM EST (11/30) 8:25 AM EST (11/30)
Length of Visible Light 10h 26m
Length of Day
9h 25m
Waning Gibbous, 96% of the Moon is Illuminated
Nov 30
Waning Gibbous
Dec 6
Last Quarter
Dec 13
New
Dec 20
First Quarter
Dec 28
Full

Hourly Weather History & Observations

Time (EST) Temp. Windchill Dew Point Humidity Pressure Visibility Wind Dir Wind Speed Gust Speed Precip Events Conditions
12:15 AM 37.4 °F 33.8 °F 26.6 °F 65% 30.28 in 10.0 mi West 4.6 mph - N/A   Clear
12:35 AM 37.4 °F 33.8 °F 26.6 °F 65% 30.28 in 10.0 mi WNW 4.6 mph - N/A   Clear
12:55 AM 37.4 °F 32.8 °F 26.6 °F 65% 30.28 in 10.0 mi West 5.8 mph - N/A   Clear
1:15 AM 37.4 °F 33.8 °F 26.6 °F 65% 30.29 in 10.0 mi WNW 4.6 mph - N/A   Clear
1:35 AM 37.4 °F 33.8 °F 24.8 °F 60% 30.29 in 10.0 mi West 4.6 mph - N/A   Clear
1:55 AM 37.4 °F 33.8 °F 24.8 °F 60% 30.29 in 10.0 mi WNW 4.6 mph - N/A   Clear
2:15 AM 35.6 °F 29.9 °F 24.8 °F 65% 30.29 in 10.0 mi West 6.9 mph - N/A   Clear
2:35 AM 35.6 °F 30.7 °F 24.8 °F 65% 30.29 in 10.0 mi West 5.8 mph - N/A   Clear
2:55 AM 35.6 °F 29.9 °F 24.8 °F 65% 30.28 in 10.0 mi West 6.9 mph - N/A   Clear
3:15 AM 35.6 °F 30.7 °F 24.8 °F 65% 30.29 in 10.0 mi West 5.8 mph - N/A   Clear
3:35 AM 35.6 °F 30.7 °F 24.8 °F 65% 30.29 in 10.0 mi West 5.8 mph - N/A   Clear
3:55 AM 35.6 °F 31.7 °F 24.8 °F 65% 30.30 in 10.0 mi WNW 4.6 mph - N/A   Clear
4:15 AM 35.6 °F 31.7 °F 24.8 °F 65% 30.30 in 10.0 mi West 4.6 mph - N/A   Clear
4:35 AM 35.6 °F 31.7 °F 24.8 °F 65% 30.31 in 10.0 mi WNW 4.6 mph - N/A   Clear
4:55 AM 35.6 °F 32.8 °F 23.0 °F 60% 30.31 in 10.0 mi NW 3.5 mph - N/A   Clear
5:15 AM 35.6 °F 32.8 °F 23.0 °F 60% 30.32 in 10.0 mi NNW 3.5 mph - N/A   Clear
5:35 AM 35.6 °F 31.7 °F 23.0 °F 60% 30.33 in 10.0 mi NNW 4.6 mph - N/A   Clear
5:55 AM 35.6 °F 31.7 °F 24.8 °F 65% 30.34 in 10.0 mi NW 4.6 mph - N/A   Clear
6:15 AM 35.6 °F 30.7 °F 23.0 °F 60% 30.35 in 10.0 mi NNW 5.8 mph - N/A   Clear
6:35 AM 35.6 °F 31.7 °F 24.8 °F 65% 30.36 in 10.0 mi North 4.6 mph - N/A   Clear
6:55 AM 35.6 °F - 24.8 °F 65% 30.36 in 9.0 mi Calm Calm - N/A   Clear
7:15 AM 37.4 °F - 24.8 °F 60% 30.38 in 9.0 mi Calm Calm - N/A   Clear
7:35 AM 37.4 °F 34.9 °F 24.8 °F 60% 30.38 in 9.0 mi North 3.5 mph - N/A   Clear
7:55 AM 37.4 °F 32.8 °F 24.8 °F 60% 30.38 in 9.0 mi NNE 5.8 mph - N/A   Clear
8:15 AM 39.2 °F 34.2 °F 24.8 °F 56% 30.39 in 10.0 mi North 6.9 mph - N/A   Clear
8:35 AM 39.2 °F 35.0 °F 26.6 °F 61% 30.39 in 9.0 mi NE 5.8 mph - N/A   Clear
8:55 AM 39.2 °F 34.2 °F 24.8 °F 56% 30.40 in 10.0 mi NE 6.9 mph - N/A   Clear
9:15 AM 39.2 °F 33.0 °F 24.8 °F 56% 30.41 in 10.0 mi NNE 9.2 mph - N/A   Partly Cloudy
9:35 AM 39.2 °F 34.2 °F 26.6 °F 61% 30.42 in 10.0 mi NNE 6.9 mph - N/A   Partly Cloudy
9:55 AM 39.2 °F 34.2 °F 26.6 °F 61% 30.41 in 8.0 mi ENE 6.9 mph - N/A   Partly Cloudy
10:15 AM 39.2 °F 33.6 °F 26.6 °F 61% 30.41 in 9.0 mi ENE 8.1 mph - N/A   Partly Cloudy
10:35 AM 39.2 °F 33.6 °F 26.6 °F 61% 30.41 in 8.0 mi NE 8.1 mph - N/A   Partly Cloudy
10:55 AM 39.2 °F 35.9 °F 26.6 °F 61% 30.40 in 9.0 mi ENE 4.6 mph - N/A   Clear
11:15 AM 39.2 °F 35.0 °F 28.4 °F 65% 30.40 in 9.0 mi NE 5.8 mph - N/A   Clear
11:35 AM 39.2 °F 35.0 °F 28.4 °F 65% 30.40 in 9.0 mi ENE 5.8 mph - N/A   Partly Cloudy
11:55 AM 39.2 °F 34.2 °F 28.4 °F 65% 30.40 in 9.0 mi NNE 6.9 mph - N/A   Partly Cloudy
12:15 PM 39.2 °F 35.9 °F 28.4 °F 65% 30.40 in 10.0 mi ENE 4.6 mph - N/A   Partly Cloudy
12:35 PM 39.2 °F 35.0 °F 28.4 °F 65% 30.40 in 10.0 mi NNE 5.8 mph - N/A   Partly Cloudy
12:55 PM 39.2 °F 34.2 °F 28.4 °F 65% 30.40 in 10.0 mi ENE 6.9 mph - N/A   Scattered Clouds
1:15 PM 39.2 °F 35.9 °F 28.4 °F 65% 30.40 in 10.0 mi East 4.6 mph - N/A   Partly Cloudy
1:35 PM 39.2 °F 37.0 °F 28.4 °F 65% 30.40 in 10.0 mi East 3.5 mph - N/A   Clear
1:55 PM 39.2 °F 37.0 °F 28.4 °F 65% 30.41 in 10.0 mi SE 3.5 mph - N/A   Clear
2:15 PM 39.2 °F 35.9 °F 28.4 °F 65% 30.41 in 10.0 mi East 4.6 mph - N/A   Clear
2:35 PM 39.2 °F 35.9 °F 30.2 °F 70% 30.42 in 10.0 mi ESE 4.6 mph - N/A   Clear
2:55 PM 39.2 °F 37.0 °F 30.2 °F 70% 30.42 in 10.0 mi East 3.5 mph - N/A   Clear
3:15 PM 39.2 °F 35.9 °F 28.4 °F 65% 30.42 in 10.0 mi East 4.6 mph - N/A   Clear
3:35 PM 39.2 °F 35.0 °F 28.4 °F 65% 30.42 in 10.0 mi ENE 5.8 mph - N/A   Partly Cloudy
3:55 PM 37.4 °F 31.4 °F 26.6 °F 65% 30.42 in 10.0 mi ENE 8.1 mph - N/A   Mostly Cloudy
4:15 PM 37.4 °F 32.8 °F 26.6 °F 65% 30.43 in 10.0 mi East 5.8 mph - N/A   Scattered Clouds
4:35 PM 35.6 °F 28.6 °F 26.6 °F 70% 30.44 in 10.0 mi ENE 9.2 mph - N/A   Mostly Cloudy
4:55 PM 33.8 °F 26.4 °F 28.4 °F 81% 30.44 in 10.0 mi ENE 9.2 mph - N/A   Mostly Cloudy
5:15 PM 33.8 °F 27.0 °F 28.4 °F 81% 30.45 in 10.0 mi ENE 8.1 mph - N/A   Mostly Cloudy
5:35 PM 32.0 °F 25.6 °F 28.4 °F 87% 30.45 in 10.0 mi NE 6.9 mph - N/A   Scattered Clouds
5:55 PM 32.0 °F 25.6 °F 28.4 °F 87% 30.46 in 10.0 mi ENE 6.9 mph - N/A   Scattered Clouds
6:15 PM 32.0 °F 25.6 °F 28.4 °F 87% 30.47 in 10.0 mi ENE 6.9 mph - N/A   Overcast
6:35 PM 32.0 °F 26.4 °F 28.4 °F 87% 30.48 in 10.0 mi NE 5.8 mph - N/A   Overcast
6:55 PM 32.0 °F 25.6 °F 26.6 °F 80% 30.48 in 10.0 mi ENE 6.9 mph - N/A   Overcast
7:15 PM 32.0 °F 27.5 °F 24.8 °F 75% 30.49 in 10.0 mi ENE 4.6 mph - N/A   Overcast
7:35 PM 32.0 °F 25.6 °F 23.0 °F 69% 30.48 in 10.0 mi NE 6.9 mph - N/A   Overcast
7:55 PM 32.0 °F 25.6 °F 21.2 °F 64% 30.48 in 10.0 mi ENE 6.9 mph - N/A   Overcast
8:15 PM 32.0 °F 26.4 °F 19.4 °F 60% 30.48 in 10.0 mi ENE 5.8 mph - N/A   Overcast
8:35 PM 32.0 °F 24.2 °F 19.4 °F 60% 30.48 in 10.0 mi ENE 9.2 mph - N/A   Overcast
8:55 PM 32.0 °F 24.2 °F 19.4 °F 60% 30.48 in 10.0 mi ENE 9.2 mph - N/A   Overcast
9:15 PM 32.0 °F 24.8 °F 19.4 °F 60% 30.48 in 10.0 mi ENE 8.1 mph - N/A   Overcast
9:35 PM 32.0 °F 24.8 °F 19.4 °F 60% 30.49 in 10.0 mi East 8.1 mph - N/A   Overcast
9:55 PM 32.0 °F 25.6 °F 21.2 °F 64% 30.49 in 10.0 mi ENE 6.9 mph - N/A   Overcast
10:15 PM 32.0 °F 23.6 °F 21.2 °F 64% 30.48 in 10.0 mi ENE 10.4 mph - N/A   Overcast
10:35 PM 32.0 °F 24.8 °F 21.2 °F 64% 30.49 in 10.0 mi East 8.1 mph - N/A   Overcast
10:55 PM 32.0 °F 24.8 °F 21.2 °F 64% 30.49 in 10.0 mi ENE 8.1 mph - N/A   Overcast
11:15 PM 32.0 °F 25.6 °F 23.0 °F 69% 30.49 in 10.0 mi ENE 6.9 mph - N/A   Overcast
11:35 PM 32.0 °F 25.6 °F 21.2 °F 64% 30.49 in 10.0 mi ENE 6.9 mph - N/A   Overcast
11:55 PM 32.0 °F 25.6 °F 21.2 °F 64% 30.49 in 10.0 mi East 6.9 mph - N/A   Overcast